�N����,����,�~����,�C��,���x,�C��,����,���ϕ���,�ő�u�ԕ���,�ő厞����,���˗�,�I�_���x,�n�����x,�ő啗���N��,DTYPE
"18/11/27","00:10",0.0,9.1,96.6,1018.0,324.5,1.5,2.4,340.0,0.00,8.6,11.5,"00:01:36",1
"18/11/27","00:20",0.0,8.9,96.3,1018.5,301.1,1.8,2.6,325.3,0.00,8.4,11.7,"00:10:48",1
"18/11/27","00:30",0.0,8.8,96.3,1017.8,300.5,1.3,2.5,325.5,0.00,8.3,11.7,"00:29:12",1
"18/11/27","00:40",0.0,8.8,96.8,1017.5,321.7,1.6,2.4,328.7,0.00,8.4,11.7,"00:30:24",1
"18/11/27","00:50",0.0,8.7,97.1,1017.8,291.1,1.2,2.2,299.2,0.00,8.3,11.6,"00:46:16",1
"18/11/27","01:00",0.0,8.8,97.0,1018.5,286.9,1.5,2.0,281.8,0.00,8.4,11.6,"00:58:24",1
"18/11/27","01:10",0.0,8.9,96.4,1018.2,317.0,2.0,2.8,314.0,0.00,8.4,11.6,"01:03:28",1
"18/11/27","01:20",0.0,8.8,96.9,1018.5,304.0,2.0,2.5,310.7,0.00,8.4,11.5,"01:10:48",1
"18/11/27","01:30",0.0,8.8,96.8,1018.5,288.3,1.3,1.7,292.4,0.00,8.4,11.4,"01:26:24",1
"18/11/27","01:40",0.0,9.0,96.4,1018.0,301.1,1.7,2.7,261.4,0.00,8.5,11.3,"01:31:36",1
"18/11/27","01:50",0.0,8.7,96.2,1018.0,351.3,1.0,2.2,310.3,0.00,8.2,11.6,"01:41:20",1
"18/11/27","02:00",0.0,8.6,96.6,1017.8,271.3,0.7,1.3,203.4,0.00,8.1,11.4,"01:58:00",1
"18/11/27","02:10",0.0,8.4,96.0,1018.2,313.2,1.8,2.6,329.2,0.00,7.8,11.5,"02:08:32",1
"18/11/27","02:20",0.0,8.1,96.3,1018.2,301.0,1.6,2.2,319.9,0.00,7.6,11.2,"02:12:40",1
"18/11/27","02:30",0.0,8.3,96.6,1018.2,324.2,2.0,2.7,321.9,0.00,7.8,11.2,"02:28:40",1
"18/11/27","02:40",0.0,8.4,97.0,1018.5,312.9,2.0,2.9,335.1,0.00,8.0,11.2,"02:31:36",1
"18/11/27","02:50",0.0,8.5,96.8,1018.0,298.3,1.5,1.8,310.3,0.00,8.1,11.3,"02:45:52",1
"18/11/27","03:00",0.0,8.2,96.4,1018.0,303.7,1.7,2.5,314.2,0.00,7.7,11.2,"02:50:48",1
"18/11/27","03:10",0.0,8.0,96.7,1017.8,314.4,1.8,2.4,316.2,0.00,7.5,11.2,"03:06:00",1
"18/11/27","03:20",0.0,7.9,96.9,1017.5,307.9,1.1,2.2,309.0,0.00,7.5,11.2,"03:19:04",1
"18/11/27","03:30",0.0,7.9,97.0,1017.5,310.8,1.6,2.1,318.8,0.00,7.5,11.1,"03:23:36",1
"18/11/27","03:40",0.0,7.5,96.9,1017.5,298.4,1.3,1.9,302.3,0.00,7.1,11.2,"03:34:32",1
"18/11/27","03:50",0.0,7.2,96.8,1017.8,307.4,1.7,2.5,313.4,0.00,6.8,11.1,"03:47:52",1
"18/11/27","04:00",0.0,7.0,97.2,1017.8,313.2,2.0,2.7,315.8,0.00,6.6,11.0,"03:51:44",1
"18/11/27","04:10",0.0,7.1,98.0,1017.8,299.8,1.7,2.2,315.6,0.00,6.8,11.1,"04:01:12",1
"18/11/27","04:20",0.0,7.6,97.2,1017.8,282.0,0.6,1.6,280.2,0.00,7.2,11.1,"04:10:56",1
"18/11/27","04:30",0.0,7.5,97.2,1017.3,355.6,0.8,2.2,323.4,0.00,7.1,10.9,"04:29:12",1
"18/11/27","04:40",0.0,7.4,97.8,1017.8,326.1,2.0,3.1,326.9,0.00,7.1,10.9,"04:31:28",1
"18/11/27","04:50",0.0,7.2,97.7,1017.3,283.2,0.7,1.3,306.4,0.00,6.9,10.8,"04:40:08",1
"18/11/27","05:00",0.0,7.2,97.8,1018.0,294.2,1.5,1.7,293.6,0.00,6.9,10.7,"04:57:12",1
"18/11/27","05:10",0.0,7.2,97.7,1018.0,320.8,2.0,2.4,319.3,0.00,6.9,10.9,"05:06:24",1
"18/11/27","05:20",0.0,7.2,97.8,1018.0,314.2,1.8,2.5,328.0,0.00,6.9,10.7,"05:11:52",1
"18/11/27","05:30",0.0,7.1,98.1,1017.8,301.7,1.8,2.8,322.5,0.00,6.9,10.8,"05:25:44",1
"18/11/27","05:40",0.0,7.2,97.1,1017.8,315.1,1.8,2.5,324.7,0.00,6.8,11.0,"05:37:44",1
"18/11/27","05:50",0.0,6.9,98.2,1018.2,297.1,1.8,2.6,312.7,0.00,6.7,10.7,"05:40:40",1
"18/11/27","06:00",0.0,7.1,97.8,1018.2,288.6,1.6,2.1,301.0,0.00,6.8,10.7,"05:59:20",1
"18/11/27","06:10",0.0,6.8,97.9,1018.2,314.5,1.8,2.5,321.2,0.00,6.5,10.6,"06:03:44",1
"18/11/27","06:20",0.0,6.4,97.5,1018.2,300.8,1.5,2.1,309.8,0.00,6.1,10.6,"06:10:08",1
"18/11/27","06:30",0.0,6.2,98.9,1018.0,305.2,1.3,1.8,306.4,0.00,6.1,10.4,"06:25:04",1
"18/11/27","06:40",0.0,5.7,97.0,1018.5,311.0,1.7,2.5,324.6,0.00,5.3,10.5,"06:32:24",1
"18/11/27","06:50",0.0,5.5,98.6,1018.5,317.5,2.0,2.7,326.0,0.00,5.3,10.2,"06:46:00",1
"18/11/27","07:00",0.0,5.6,97.8,1018.2,310.0,1.6,2.4,330.1,0.00,5.3,10.2,"06:50:08",1
"18/11/27","07:10",0.0,5.8,99.3,1018.2,315.2,1.7,2.5,321.0,0.00,5.7,10.2,"07:08:56",1
"18/11/27","07:20",0.0,6.1,98.8,1018.0,301.3,1.5,2.1,316.1,0.00,6.0,10.3,"07:19:04",1
"18/11/27","07:30",0.0,6.5,98.7,1018.0,305.0,1.7,2.2,318.2,0.00,6.4,10.4,"07:27:44",1
"18/11/27","07:40",0.0,6.8,98.6,1018.0,292.6,1.6,1.8,312.2,0.00,6.6,10.1,"07:31:36",1
"18/11/27","07:50",0.0,7.5,98.1,1018.2,292.2,1.5,1.9,282.7,0.00,7.3,10.4,"07:40:56",1
"18/11/27","08:00",0.0,8.1,98.1,1018.5,304.8,0.5,1.2,308.9,0.01,7.9,10.2,"07:51:12",1
"18/11/27","08:10",0.0,7.7,97.3,1018.5,319.9,1.6,2.7,328.8,0.02,7.3,10.3,"08:08:48",1
"18/11/27","08:20",0.0,8.6,98.0,1018.5,296.0,1.2,2.2,320.6,0.03,8.3,10.2,"08:10:16",1
"18/11/27","08:30",0.0,10.0,96.5,1018.5,277.6,0.7,1.0,289.5,0.05,9.5,10.4,"08:20:16",1
"18/11/27","08:40",0.0,9.9,95.3,1019.0,107.3,0.5,1.7,306.3,0.06,9.2,10.3,"08:30:24",1
"18/11/27","08:50",0.0,10.3,94.1,1019.0,108.6,0.7,1.3,119.3,0.09,9.4,10.6,"08:48:40",1
"18/11/27","09:00",0.0,11.0,91.3,1019.0,97.4,0.5,1.3,104.0,0.11,9.7,10.4,"08:50:40",1
"18/11/27","09:10",0.0,11.7,87.9,1019.2,271.0,0.6,1.1,258.4,0.14,9.8,10.7,"09:05:06",1
"18/11/27","09:20",0.0,12.0,85.5,1019.2,250.7,0.5,1.0,218.0,0.17,9.7,11.0,"09:17:04",1
"18/11/27","09:30",0.0,12.6,85.3,1019.4,229.1,0.3,0.9,209.2,0.19,10.2,11.2,"09:26:32",1
"18/11/27","09:40",0.0,12.9,83.0,1019.9,207.9,0.2,0.8,104.8,0.21,10.1,11.4,"09:33:28",1
"18/11/27","09:50",0.0,13.0,81.5,1019.7,182.3,0.6,1.1,97.5,0.23,10.0,11.6,"09:47:52",1
"18/11/27","10:00",0.0,13.6,79.0,1019.9,201.2,0.6,1.6,202.8,0.25,10.1,11.8,"09:58:56",1
"18/11/27","10:10",0.0,14.1,78.5,1019.7,206.2,0.7,2.2,222.2,0.27,10.5,11.9,"10:00:02",1
"18/11/27","10:20",0.0,14.1,76.9,1019.4,215.1,0.8,2.1,236.4,0.28,10.2,12.2,"10:10:24",1
"18/11/27","10:30",0.0,13.8,77.6,1019.2,197.3,1.0,2.6,208.0,0.15,10.0,12.1,"10:24:08",1
"18/11/27","10:40",0.0,14.5,76.5,1019.0,220.7,0.8,1.6,215.9,0.24,10.5,12.6,"10:30:08",1
"18/11/27","10:50",0.0,14.7,73.5,1018.2,217.8,1.1,2.4,206.3,0.33,10.1,12.7,"10:43:28",1
"18/11/27","11:00",0.0,15.0,71.7,1018.5,215.8,1.0,2.1,242.7,0.33,10.0,12.8,"10:54:48",1
"18/11/27","11:10",0.0,15.2,68.6,1017.8,254.4,0.6,2.1,220.3,0.25,9.5,13.2,"11:09:52",1
"18/11/27","11:20",0.0,15.7,68.5,1017.5,230.9,1.0,2.1,194.3,0.36,10.0,13.2,"11:10:32",1
"18/11/27","11:30",0.0,15.9,68.8,1017.3,218.2,1.1,2.4,229.0,0.37,10.2,13.5,"11:22:16",1
"18/11/27","11:40",0.0,16.4,67.7,1016.8,215.7,0.7,2.1,213.8,0.38,10.5,13.7,"11:31:52",1
"18/11/27","11:50",0.0,16.5,65.3,1016.4,216.6,0.6,1.3,148.3,0.38,10.0,14.0,"11:49:52",1
"18/11/27","12:00",0.0,16.4,65.5,1016.4,153.4,0.8,3.2,105.0,0.38,10.0,14.2,"11:56:56",1
"18/11/27","12:10",0.0,17.0,66.8,1016.1,181.1,0.8,2.2,152.9,0.37,10.8,14.2,"12:07:28",1
"18/11/27","12:20",0.0,17.3,65.4,1016.1,193.7,1.3,2.9,213.1,0.39,10.8,14.7,"12:15:20",1
"18/11/27","12:30",0.0,17.3,65.8,1015.9,187.8,2.0,3.6,232.6,0.39,10.9,14.9,"12:21:28",1
"18/11/27","12:40",0.0,17.4,64.8,1015.6,209.1,1.5,4.3,219.2,0.37,10.8,15.0,"12:30:16",1
"18/11/27","12:50",0.0,17.9,64.1,1015.4,168.9,1.2,3.2,201.1,0.37,11.1,15.3,"12:49:44",1
"18/11/27","13:00",0.0,17.7,64.2,1015.4,194.9,1.2,2.7,196.1,0.36,10.9,15.5,"12:51:52",1
"18/11/27","13:10",0.0,18.1,63.9,1014.7,123.3,1.1,2.1,101.0,0.35,11.2,15.5,"13:03:44",1
"18/11/27","13:20",0.0,18.2,64.4,1014.9,179.4,1.2,3.2,53.4,0.35,11.4,15.5,"13:14:32",1
"18/11/27","13:30",0.0,18.6,63.5,1014.7,215.6,1.0,2.0,210.9,0.33,11.6,16.0,"13:21:04",1
"18/11/27","13:40",0.0,18.1,63.0,1014.5,195.4,1.0,2.5,216.3,0.23,11.0,15.8,"13:39:52",1
"18/11/27","13:50",0.0,18.3,63.2,1014.2,223.9,1.0,2.6,218.8,0.20,11.2,15.9,"13:45:04",1
"18/11/27","14:00",0.0,18.3,62.3,1014.7,186.9,1.0,2.7,187.4,0.19,11.0,16.0,"13:56:56",1
"18/11/27","14:10",0.0,18.3,61.4,1014.2,145.3,1.8,4.0,109.7,0.26,10.8,16.0,"14:03:12",1
"18/11/27","14:20",0.0,18.4,59.9,1014.5,164.2,1.7,4.1,125.9,0.25,10.5,16.2,"14:10:32",1
"18/11/27","14:30",0.0,18.6,60.4,1014.0,190.1,1.5,2.8,188.3,0.23,10.8,16.1,"14:21:04",1
"18/11/27","14:40",0.0,18.4,59.8,1014.2,170.3,1.6,3.4,137.7,0.21,10.5,16.0,"14:34:48",1
"18/11/27","14:50",0.0,18.8,58.0,1014.0,177.4,1.3,2.9,198.1,0.20,10.4,16.0,"14:48:24",1
"18/11/27","15:00",0.0,18.9,59.4,1014.0,157.6,1.0,2.0,228.1,0.18,10.9,16.2,"14:50:08",1
"18/11/27","15:10",0.0,18.9,59.3,1013.8,187.8,1.1,2.1,207.1,0.15,10.8,16.0,"15:07:04",1
"18/11/27","15:20",0.0,18.3,59.6,1014.0,200.4,1.8,4.4,198.1,0.08,10.3,16.0,"15:18:00",1
"18/11/27","15:30",0.0,18.1,60.9,1014.2,212.6,2.0,4.8,201.4,0.06,10.5,16.1,"15:21:44",1
"18/11/27","15:40",0.0,18.2,60.8,1014.2,207.8,2.2,3.9,203.7,0.10,10.6,16.1,"15:34:48",1
"18/11/27","15:50",0.0,18.1,60.9,1014.5,219.0,2.2,4.5,232.0,0.06,10.5,15.8,"15:49:04",1
"18/11/27","16:00",0.0,17.8,62.1,1014.7,220.8,1.6,3.5,224.7,0.02,10.5,15.7,"15:53:28",1
"18/11/27","16:10",0.0,17.5,63.5,1014.5,224.5,1.5,2.7,214.1,0.01,10.5,15.7,"16:06:08",1
"18/11/27","16:20",0.0,17.2,64.8,1014.9,257.9,1.2,2.6,236.6,0.00,10.6,15.7,"16:10:40",1
"18/11/27","16:30",0.0,16.7,66.7,1014.9,280.9,0.8,1.6,262.3,0.00,10.5,15.3,"16:20:48",1
"18/11/27","16:40",0.0,16.1,69.4,1014.5,300.3,1.0,1.6,320.9,0.00,10.5,15.3,"16:30:08",1
"18/11/27","16:50",0.0,15.4,72.4,1015.2,314.6,1.2,1.8,307.3,0.00,10.5,15.1,"16:47:52",1
"18/11/27","17:00",0.0,15.0,75.3,1014.9,295.2,1.0,1.8,337.7,0.00,10.7,15.1,"16:51:52",1
"18/11/27","17:10",0.0,14.7,77.5,1015.2,292.1,0.8,1.4,266.0,0.00,10.9,14.8,"17:05:36",1
"18/11/27","17:20",0.0,14.4,78.5,1014.9,308.0,0.7,1.8,314.9,0.00,10.8,14.9,"17:11:20",1
"18/11/27","17:30",0.0,14.0,80.0,1015.2,292.8,0.7,1.1,305.9,0.00,10.6,14.6,"17:25:52",1
"18/11/27","17:40",0.0,13.7,80.9,1015.4,291.8,1.2,2.2,318.4,0.00,10.5,14.7,"17:35:04",1
"18/11/27","17:50",0.0,13.7,81.7,1015.6,291.6,1.5,2.5,336.8,0.00,10.7,14.6,"17:42:56",1
"18/11/27","18:00",0.0,13.6,82.2,1015.6,284.2,1.2,2.1,306.6,0.00,10.7,14.3,"17:57:04",1
"18/11/27","18:10",0.0,13.5,82.1,1015.9,280.1,1.3,1.8,313.4,0.00,10.5,14.3,"18:05:12",1
"18/11/27","18:20",0.0,13.5,82.5,1015.9,298.1,1.5,2.2,328.8,0.00,10.6,14.2,"18:18:40",1
"18/11/27","18:30",0.0,13.7,82.1,1015.9,309.9,2.1,3.4,326.8,0.00,10.7,14.2,"18:25:44",1
"18/11/27","18:40",0.0,13.5,81.3,1015.9,313.2,1.5,2.5,322.6,0.00,10.4,14.0,"18:34:00",1
"18/11/27","18:50",0.0,13.1,81.4,1016.1,325.9,1.2,2.0,331.5,0.00,10.0,13.8,"18:40:08",1
"18/11/27","19:00",0.0,12.6,83.5,1016.4,306.6,1.5,2.0,315.9,0.00,9.9,13.8,"18:58:12",1
"18/11/27","19:10",0.0,12.4,84.7,1016.1,292.8,1.3,2.0,291.6,0.00,9.9,13.6,"19:01:52",1
"18/11/27","19:20",0.0,12.1,85.4,1016.1,305.6,1.1,1.6,319.4,0.00,9.8,13.5,"19:12:18",1
"18/11/27","19:30",0.0,11.4,85.3,1016.1,319.3,2.0,2.4,321.9,0.00,9.1,13.7,"19:27:38",1
"18/11/27","19:40",0.0,10.8,87.5,1015.9,311.2,1.3,1.9,321.8,0.00,8.8,13.5,"19:31:24",1
"18/11/27","19:50",0.0,10.5,89.6,1016.4,310.0,1.2,1.7,323.8,0.00,8.9,13.4,"19:47:46",1
"18/11/27","20:00",0.0,10.4,89.6,1016.1,324.9,1.6,1.9,320.0,0.00,8.8,13.2,"19:51:36",1
"18/11/27","20:10",0.0,10.2,90.4,1016.1,324.3,1.8,2.1,327.7,0.00,8.7,13.2,"20:04:16",1
"18/11/27","20:20",0.0,9.9,91.2,1016.1,303.1,1.2,1.9,322.6,0.00,8.6,13.2,"20:10:32",1
"18/11/27","20:30",0.0,9.6,91.0,1015.9,318.8,1.0,2.5,330.7,0.00,8.2,13.0,"20:20:02",1
"18/11/27","20:40",0.0,9.4,92.8,1015.9,313.9,1.8,2.4,328.5,0.00,8.3,13.0,"20:31:12",1
"18/11/27","20:50",0.0,10.0,93.5,1016.1,316.2,2.0,2.7,334.7,0.00,9.0,12.9,"20:44:16",1
"18/11/27","21:00",0.0,10.2,93.4,1016.4,308.8,1.7,2.5,320.7,0.00,9.2,12.8,"20:54:16",1
"18/11/27","21:10",0.0,10.6,93.4,1016.4,294.9,1.6,1.9,318.7,0.00,9.6,12.7,"21:08:40",1
"18/11/27","21:20",0.0,10.8,92.8,1016.4,298.2,1.5,2.1,317.6,0.00,9.7,12.7,"21:19:52",1
"18/11/27","21:30",0.0,10.6,92.8,1016.8,320.5,2.1,2.4,323.4,0.00,9.5,12.5,"21:21:52",1
"18/11/27","21:40",0.0,10.7,93.3,1016.4,313.5,1.3,2.0,312.1,0.00,9.7,12.9,"21:31:36",1
"18/11/27","21:50",0.0,10.7,93.2,1016.4,305.3,1.1,1.8,313.4,0.00,9.7,12.9,"21:49:20",1
"18/11/27","22:00",0.0,10.8,93.3,1016.6,317.5,2.0,2.2,325.0,0.00,9.8,12.7,"21:54:24",1
"18/11/27","22:10",0.0,10.8,93.5,1016.6,310.9,1.7,1.9,309.3,0.00,9.8,12.8,"22:05:20",1
"18/11/27","22:20",0.0,10.8,93.4,1016.4,299.8,1.0,1.6,298.4,0.00,9.8,12.7,"22:19:06",1
"18/11/27","22:30",0.0,11.0,93.6,1016.6,318.6,1.7,2.0,322.3,0.00,10.0,12.7,"22:23:18",1
"18/11/27","22:40",0.0,11.1,93.3,1016.6,319.5,1.5,2.1,319.9,0.00,10.1,12.7,"22:36:32",1
"18/11/27","22:50",0.0,11.1,93.2,1016.4,292.5,1.1,1.4,324.9,0.00,10.1,12.6,"22:40:32",1
"18/11/27","23:00",0.0,11.2,93.4,1016.4,291.1,1.3,1.8,286.5,0.00,10.2,12.6,"22:56:44",1
"18/11/27","23:10",0.0,11.5,92.8,1016.4,322.1,1.3,2.1,336.6,0.00,10.4,12.8,"23:03:16",1
"18/11/27","23:20",0.0,11.5,92.5,1016.1,297.2,1.2,2.0,309.7,0.00,10.4,12.7,"23:12:00",1
"18/11/27","23:30",0.0,11.6,92.6,1016.1,266.9,1.2,1.8,251.2,0.00,10.5,12.9,"23:23:36",1
"18/11/27","23:40",0.0,11.8,91.9,1016.4,310.5,1.2,2.5,325.5,0.00,10.6,12.7,"23:36:08",1
"18/11/27","23:50",0.0,11.7,91.7,1016.1,315.3,1.6,2.4,329.4,0.00,10.4,12.5,"23:41:04",1
"18/11/27","24:00",0.0,11.6,92.1,1015.9,273.9,0.8,1.0,269.7,0.00,10.4,12.7,"23:56:34",1
